Weather History for Fort Stockton, TX

Change the Weather History Date:

Tuesday, November 27, 2012

  Actual Average Record
Temperature  
Mean Temperature 45 °F -  
Max Temperature 57 °F 62 °F 82 °F (1998)
Min Temperature 33 °F 39 °F 26 °F (2001)
Degree Days  
Heating Degree Days 20    
Moisture  
Dew Point 25 °F    
Average Humidity 46    
Maximum Humidity 70    
Minimum Humidity 28    
Precipitation  
Precipitation 0.00 in - - ()
Sea Level Pressure  
Sea Level Pressure 30.32 in    
Wind  
Wind Speed 6 mph (ENE)    
Max Wind Speed 12 mph    
Max Gust Speed -    
Visibility 10 miles    
Events      
Averages and records for this station are not official NWS values.
T = Trace of Precipitation, MM = Missing Value Source: NWS Daily Summary

Daily Weather History Graph

Daily Weather History Graph

Search for Another Location

Airport:

Trip Planner

Search our weather history database for the weather conditions in past years. The results will help you decide how hot, cold, wet, or windy it might be!

Date:

Astronomy

Nov. 27, 2012 Rise Set
Actual Time 7:29 AM CST 5:49 PM CST
Civil Twilight 7:02 AM CST 6:15 PM CST
Nautical Twilight 6:33 AM CST 6:45 PM CST
Astronomical Twilight 6:04 AM CST 7:14 PM CST
Moon 5:21 PM CST (11/27) 6:37 AM CST (11/27)
Length of Visible Light 11h 13m
Length of Day
10h 20m
Waxing Gibbous, 99% of the Moon is Illuminated
Nov 27
Waxing Gibbous
Nov 28
Full
Dec 6
Last Quarter
Dec 13
New
Dec 19
First Quarter

Hourly Weather History & Observations

Time (CST) Temp. Windchill Dew Point Humidity Pressure Visibility Wind Dir Wind Speed Gust Speed Precip Events Conditions
12:53 AM 45.0 °F 39.3 °F 27.0 °F 49% 30.30 in 10.0 mi NNE 11.5 mph - N/A   Clear
1:53 AM 43.0 °F 38.2 °F 26.1 °F 51% 30.31 in 10.0 mi NNE 8.1 mph - N/A   Clear
2:53 AM 39.9 °F 35.1 °F 26.1 °F 58% 30.32 in 10.0 mi NNE 6.9 mph - N/A   Clear
3:53 AM 39.0 °F 34.0 °F 25.0 °F 57% 30.34 in 10.0 mi NE 6.9 mph - N/A   Clear
4:53 AM 36.0 °F 32.1 °F 24.1 °F 62% 30.34 in 10.0 mi ENE 4.6 mph - N/A   Clear
5:53 AM 36.0 °F 33.3 °F 24.1 °F 62% 30.37 in 10.0 mi NNE 3.5 mph - N/A   Clear
6:53 AM 35.1 °F 32.2 °F 24.1 °F 64% 30.39 in 10.0 mi NW 3.5 mph - N/A   Clear
7:53 AM 33.1 °F 28.7 °F 24.1 °F 70% 30.41 in 10.0 mi West 4.6 mph - N/A   Clear
8:53 AM 37.0 °F 34.5 °F 21.9 °F 54% 30.42 in 10.0 mi WNW 3.5 mph - N/A   Clear
9:53 AM 42.1 °F 40.2 °F 21.0 °F 43% 30.42 in 10.0 mi North 3.5 mph - N/A   Clear
10:53 AM 44.1 °F - 23.0 °F 43% 30.41 in 10.0 mi Calm Calm - N/A   Clear
11:53 AM 46.9 °F - 23.0 °F 39% 30.39 in 10.0 mi Calm Calm - N/A   Clear
12:53 PM 50.0 °F - 24.1 °F 36% 30.34 in 10.0 mi Variable 3.5 mph - N/A   Clear
1:53 PM 53.1 °F - 24.1 °F 32% 30.30 in 10.0 mi Calm Calm - N/A   Clear
2:53 PM 55.0 °F - 24.1 °F 30% 30.27 in 10.0 mi ESE 6.9 mph - N/A   Clear
3:53 PM 57.0 °F - 24.1 °F 28% 30.26 in 10.0 mi ESE 6.9 mph - N/A   Clear
4:53 PM 57.0 °F - 25.0 °F 29% 30.25 in 10.0 mi East 8.1 mph - N/A   Clear
5:53 PM 53.1 °F - 24.1 °F 32% 30.25 in 10.0 mi East 6.9 mph - N/A   Clear
6:53 PM 48.0 °F - 24.1 °F 39% 30.26 in 10.0 mi East 8.1 mph - N/A   Clear
7:53 PM 46.0 °F 42.5 °F 25.0 °F 44% 30.27 in 10.0 mi ESE 6.9 mph - N/A   Clear
8:53 PM 48.9 °F - 26.1 °F 41% 30.26 in 10.0 mi SSE 8.1 mph - N/A   Clear
9:53 PM 46.0 °F 43.1 °F 28.0 °F 50% 30.26 in 10.0 mi SSE 5.8 mph - N/A   Clear
10:53 PM 46.9 °F - 28.0 °F 48% 30.25 in 10.0 mi SSE 5.8 mph - N/A   Clear